TimePST,TemperatureF,Dew PointF,Humidity,Sea Level PressureIn,VisibilityMPH,Wind Direction,Wind SpeedMPH,Gust SpeedMPH,PrecipitationIn,Events,Conditions,WindDirDegrees,DateUTC
12:53 AM,41.0,39.0,93,29.97,10.0,SE,5.8,-,0.01,,Overcast,140,2013-01-07 08:53:00
1:53 AM,43.0,39.0,86,29.96,10.0,ESE,5.8,-,N/A,,Overcast,120,2013-01-07 09:53:00
2:53 AM,42.1,39.0,89,29.93,10.0,SE,8.1,-,N/A,,Overcast,140,2013-01-07 10:53:00
3:53 AM,43.0,39.9,89,29.90,10.0,SE,8.1,-,N/A,,Overcast,130,2013-01-07 11:53:00
4:53 AM,44.1,39.9,85,29.86,10.0,SE,10.4,-,N/A,,Overcast,130,2013-01-07 12:53:00
5:53 AM,46.0,41.0,83,29.84,10.0,South,11.5,16.1,0.00,Rain,Light Rain,170,2013-01-07 13:53:00
6:53 AM,48.0,43.0,83,29.84,10.0,South,11.5,-,0.01,,Overcast,170,2013-01-07 14:53:00
7:53 AM,48.9,43.0,80,29.82,10.0,South,12.7,-,N/A,,Overcast,170,2013-01-07 15:53:00
8:53 AM,50.0,44.1,80,29.84,10.0,South,21.9,29.9,N/A,,Overcast,170,2013-01-07 16:53:00
9:53 AM,50.0,46.0,86,29.86,10.0,South,17.3,23.0,N/A,,Overcast,180,2013-01-07 17:53:00
10:10 AM,51.8,46.4,82,29.86,10.0,South,16.1,27.6,N/A,,Overcast,180,2013-01-07 18:10:00
10:53 AM,52.0,46.0,80,29.89,10.0,South,18.4,29.9,N/A,,Overcast,190,2013-01-07 18:53:00
11:00 AM,51.8,46.4,82,29.89,10.0,South,18.4,33.4,N/A,,Overcast,190,2013-01-07 19:00:00
11:53 AM,52.0,46.0,80,29.89,10.0,South,18.4,28.8,N/A,,Overcast,190,2013-01-07 19:53:00
11:58 AM,51.8,46.4,82,29.89,10.0,South,19.6,32.2,N/A,,Overcast,180,2013-01-07 19:58:00
12:53 PM,52.0,45.0,77,29.91,10.0,South,19.6,36.8,N/A,,Overcast,190,2013-01-07 20:53:00
1:53 PM,52.0,45.0,77,29.94,10.0,South,17.3,36.8,N/A,,Overcast,190,2013-01-07 21:53:00
2:39 PM,51.8,44.6,76,29.95,10.0,SSW,15.0,27.6,N/A,,Scattered Clouds,200,2013-01-07 22:39:00
2:53 PM,51.1,44.1,77,29.96,10.0,South,12.7,21.9,N/A,,Mostly Cloudy,190,2013-01-07 22:53:00
3:00 PM,51.8,44.6,76,29.97,10.0,SSW,13.8,27.6,N/A,,Scattered Clouds,210,2013-01-07 23:00:00
3:16 PM,51.8,44.6,76,29.99,10.0,SSW,15.0,23.0,N/A,,Mostly Cloudy,210,2013-01-07 23:16:00
3:53 PM,51.1,43.0,74,30.01,10.0,South,10.4,24.2,N/A,,Overcast,190,2013-01-07 23:53:00
4:53 PM,50.0,43.0,77,30.04,10.0,South,6.9,-,N/A,,Overcast,190,2013-01-08 00:53:00
5:53 PM,50.0,43.0,77,30.06,10.0,South,6.9,-,N/A,,Overcast,190,2013-01-08 01:53:00
6:53 PM,50.0,42.1,74,30.08,10.0,South,6.9,-,N/A,,Overcast,180,2013-01-08 02:53:00
7:53 PM,48.9,39.9,71,30.09,10.0,South,10.4,-,N/A,,Overcast,170,2013-01-08 03:53:00
8:18 PM,48.2,39.2,71,30.10,10.0,South,11.5,-,N/A,,Overcast,170,2013-01-08 04:18:00
8:53 PM,48.0,39.9,74,30.12,10.0,SSE,13.8,20.7,N/A,,Partly Cloudy,160,2013-01-08 04:53:00
9:53 PM,48.0,39.0,71,30.14,10.0,South,12.7,19.6,N/A,,Mostly Cloudy,170,2013-01-08 05:53:00
10:53 PM,48.0,39.0,71,30.14,10.0,South,9.2,-,N/A,,Overcast,170,2013-01-08 06:53:00
11:10 PM,48.2,39.2,71,30.16,10.0,South,9.2,-,N/A,,Overcast,170,2013-01-08 07:10:00
11:53 PM,48.0,39.9,74,30.15,10.0,South,9.2,-,N/A,,Overcast,170,2013-01-08 07:53:00